Flag for Seychelles Weather past 2 weeks in Victoria, Seychelles

Now
81 °F

Passing clouds.


Feels Like: 85 °F
Forecast: 75 / 81 °F
Wind: 12 mph from Southeast

Location: National Airport

Current Time: Sep 22, 2014 at 12:55:11 AM

Latest Report: Sep 21, 2014 at 11:00 PM


Visibility: N/A

Pressure: 29.92 "Hg

Humidity: 79%

Dew point: 73 °F

Location of VictoriaLocation

Historic Weather in Victoria — Graph

°F

Victoria temperature yesterday

Maximum temperature yesterday: 82 °F (at 12:00 PM)
Minimum temperature yesterday: 77 °F (at 9:00 AM)
Average temperature yesterday: 80 °F

Past Weeks' High & Low Weather Summary

 TemperatureHumidityPressure
High88 °F (Sep 8, 1:00 PM)100% (Sep 15, 4:00 AM)29.98 "Hg (Sep 15, 4:00 AM)
Low73 °F (Sep 15, 1:00 PM)59% (Sep 7, 11:00 AM)29.83 "Hg (Sep 15, 3:00 AM)
Average81 °F80%29.91 "Hg
* Reported Sep 6 11:00 PM — Sep 21 11:00 PM, Victoria, Weather by CustomWeather, © 2014

Note: Actual official high and low records may vary slightly from our data, if they occured in-between our weather recording intervals... More about our weather records

Advertising

Victoria weather history for previous 24 hours

 ConditionsComfort  
Time TempWeatherWind HumidityBarometerVisibility
11:00 PM
Sep 21
81 °FPassing clouds.12 mph79%29.92 "HgN/A
10:00 PM81 °FPassing clouds.14 mph79%29.95 "HgN/A
9:00 PM81 °FPassing clouds.14 mph79%29.92 "HgN/A
8:00 PM79 °FSprinkles. Partly cloudy.12 mph79%29.89 "HgN/A
7:00 PM81 °FPassing clouds.17 mph70%29.89 "HgN/A
6:00 PM81 °FScattered clouds.6 mph74%29.86 "HgN/A
5:00 PM81 °FBroken clouds.16 mph74%29.83 "HgN/A
4:00 PM81 °FScattered clouds.15 mph84%29.83 "HgN/A
3:00 PM81 °FPartly sunny.17 mph79%29.83 "HgN/A
2:00 PM82 °FPartly sunny.21 mph74%29.83 "HgN/A
1:00 PM82 °FPartly sunny.18 mph79%29.86 "HgN/A
12:00 PM82 °FPartly sunny.17 mph74%29.89 "Hg5 mi
11:00 AM81 °FPartly sunny.17 mph84%29.89 "HgN/A
10:00 AM79 °FPartly sunny.16 mph89%29.92 "Hg5 mi
9:00 AM77 °FScattered clouds.14 mph94%29.92 "Hg5 mi
8:00 AM81 °FScattered clouds.16 mph89%29.89 "HgN/A
7:00 AM81 °FPassing clouds.14 mph79%29.86 "HgN/A
6:00 AM81 °FPassing clouds.14 mph79%29.86 "HgN/A
5:00 AM79 °FPassing clouds.16 mph84%29.83 "HgN/A
4:00 AM81 °FPassing clouds.15 mph79%29.83 "HgN/A
3:00 AM79 °FPassing clouds.16 mph84%29.83 "HgN/A
2:00 AM79 °FPassing clouds.16 mph84%29.86 "HgN/A
1:00 AM81 °FPassing clouds.17 mph84%29.86 "HgN/A
12:00 AM79 °FPassing clouds.12 mph89%29.89 "HgN/A
Weather by CustomWeather, © 2014

See weather overviewHow to use our weather pages